Home > Weather > Narowal > Past weeks

Flag for Pakistan Weather for the Past 2 Weeks in Narowal, Pakistan

Now
55 °F

Fog.


Feels Like: 55 °F
Forecast: 46 / 73 °F
Wind: No wind

Location: Amritsar Airport

Current Time: Feb 14, 2016 at 8:42:35 PM

Latest Report: Feb 14, 2016 at 8:00 PM


Visibility: 3 mi

Pressure: 30.07 "Hg

Humidity: 77%

Dew point: 48 °F

Location of NarowalLocation

Historic Weather in Narowal — Graph

°F

Narowal Temperature Yesterday

Maximum temperature yesterday: 70 °F (at 1:30 PM)
Minimum temperature yesterday: 45 °F (at 4:00 AM)
Average temperature yesterday: 55 °F

High & Low Weather Summary for the Past Weeks

 TemperatureHumidityPressure
High72 °F (Feb 4, 1:00 PM)100% (Jan 30, 6:00 PM)30.15 "Hg (Jan 30, 6:00 PM)
Low41 °F (Feb 1, 5:30 AM)0% (Feb 10, 9:00 PM)29.65 "Hg (Feb 11, 6:00 AM)
Average57 °F82%29.99 "Hg
* Reported Jan 30 6:00 PM — Feb 14 6:30 PM, Narowal, Weather by CustomWeather, © 2016

Note: Actual official high and low records may vary slightly from our data, if they occured in-between our weather recording intervals... More about our weather records

Advertising

Narowal Weather History for the Previous 24 Hours

 ConditionsComfort  
Time TempWeatherWind HumidityBarometerVisibility
6:30 PM
Sun, Feb 14
59 °FHaze.No wind68%30.04 "Hg3 mi
6:00 PM61 °FHaze.5 mph63%30.04 "Hg3 mi
5:30 PM63 °FHaze.5 mph68%30.04 "Hg3 mi
5:00 PM66 °FClear.5 mph56%30.04 "Hg3 mi
4:30 PM68 °FClear.6 mph49%30.04 "Hg3 mi
4:00 PM68 °FClear.8 mph43%30.04 "Hg3 mi
3:30 PM68 °FClear.7 mph40%30.04 "Hg3 mi
2:30 PM68 °FClear.8 mph40%30.07 "Hg4 mi
2:00 PM68 °FClear.8 mph46%30.07 "Hg4 mi
1:30 PM68 °FClear.8 mph49%30.07 "Hg4 mi
1:00 PM68 °FClear.8 mph46%30.07 "Hg4 mi
12:30 PM66 °FClear.7 mph52%30.09 "Hg4 mi
12:00 PM66 °FClear.8 mph49%30.09 "Hg4 mi
11:30 AM66 °FClear.8 mph52%30.12 "Hg4 mi
11:00 AM64 °FClear.9 mph56%30.12 "Hg4 mi
10:30 AM63 °FClear.9 mph56%30.12 "Hg4 mi
10:00 AM61 °FHaze.8 mph68%30.12 "Hg3 mi
9:30 AM57 °FHaze.3 mph77%30.12 "Hg2 mi
8:30 AM50 °FFog.6 mph100%30.09 "Hg1 mi
7:30 AM45 °FFog.No wind100%30.09 "Hg1 mi
6:30 AM45 °FFog.No wind100%30.07 "Hg1 mi
5:00 AM45 °FFog.No wind100%30.04 "Hg2 mi
4:30 AM45 °FFog.No wind100%30.04 "Hg2 mi
4:00 AM45 °FFog.No wind100%30.07 "Hg2 mi
3:30 AM46 °FFog.No wind100%30.07 "Hg2 mi
2:30 AM48 °FFog.No wind100%30.07 "Hg2 mi
2:00 AM48 °FFog.No wind100%30.07 "Hg2 mi
1:30 AM48 °FFog.No wind100%30.07 "Hg2 mi
1:00 AM50 °FFog.No wind94%30.07 "Hg2 mi
11:30 PM
Sat, Feb 13
50 °FFog.No wind82%30.07 "Hg2 mi
11:00 PM50 °FFog.No wind82%30.07 "Hg2 mi
10:30 PM52 °FHaze.1 mph77%30.07 "Hg2 mi
10:00 PM52 °FHaze.No wind72%30.07 "Hg2 mi
9:30 PM52 °FHaze.No wind77%30.07 "Hg2 mi
9:00 PM54 °FHaze.No wind77%30.07 "Hg2 mi
8:30 PM54 °FHaze.No wind77%30.07 "Hg2 mi
8:00 PM55 °FHaze.No wind72%30.07 "Hg2 mi
Weather by CustomWeather, © 2016

See weather overviewHow to use our weather pages